Regional Weather Roundup
Issued by NWS Newport/Morehead, NC

Current Version | Previous Version | Text Only | Print | Product List | Glossary On
Versions: 1 2 3 4 5 6 7 8 9 10 11 12 13 14 15 16 17 18 19 20 21 22 23 24 25 26 27 28 29 30 31 32 33 34 35 36 37 38 39 40 41 42 43 44 45 46 47 48 49 50
000 ASUS42 KMHX 291922 RWRMHX WEATHER ROUNDUP FOR EASTERN NORTH CAROLINA NATIONAL WEATHER SERVICE NEWPORT/MOREHEAD CITY NC 300 PM EDT FRI AUG 29 2014 NOTE: "FAIR" INDICATES FEW OR NO CLOUDS BELOW 12,000 FEET WITH NO SIGNIFICANT WEATHER AND/OR OBSTRUCTIONS TO VISIBILITY NCZ015>017-031-032-045>047-102-103-292000- NORTH COAST CITY SKY/WX TMP DP RH WIND PRES REMARKS EDENTON MOSUNNY 82 69 64 SE10 30.13F ELIZABETH CITY CLOUDY 81 66 60 E12 30.15S KITTY HAWK CLOUDY 80 65 60 NE7 30.13F MANTEO CLOUDY 78 65 66 NE12 30.13F $$ NCZ045>047-081-094-103-104-292000- CENTRAL COAST CITY SKY/WX TMP DP RH WIND PRES REMARKS FRISCO PTSUNNY 82 73 74 E8 30.11S SWANQUARTER N/A 82 N/A N/A E8 30.09S $$ NCZ095-097-098-100-101-292000- SOUTHERN COAST CITY SKY/WX TMP DP RH WIND PRES REMARKS BEAUFORT CLOUDY 86 70 58 SW8 30.10S CEDAR ISLAND N/A 82 N/A N/A NE12 30.15S JACKSONVILLE PTSUNNY 89 66 46 E7 30.09F NEWPORT NOT AVBL PINEY ISLAND PTCLDY 84 75 74 NE10 30.10F WILMINGTON SUNNY 87 70 56 E8 30.09F $$ NCZ011>013-027>030-043-044-078>080-089-090>093-098-292000- COASTAL PLAIN CITY SKY/WX TMP DP RH WIND PRES REMARKS AHOSKIE MOSUNNY 79 68 68 NE5 30.13F CLINTON MOSUNNY 91 70 50 CALM 30.08F ELIZABETHTOWN MOSUNNY 92 63 37 N3 30.08F GOLDSBORO PTSUNNY 86 77 74 E7 30.08F GREENVILLE CLOUDY 82 73 74 E8 30.13S HAVELOCK PTSUNNY 85 73 67 NE9 30.11F KENANSVILLE MOSUNNY 88 70 56 NE3 30.10F KINSTON MOSUNNY 84 73 70 E7 30.12S NEW BERN CLOUDY 87 72 60 E3 30.11S RICHLANDS CLOUDY 91 66 43 NW5 30.08F ROANOKE RAPIDS NOT AVBL ROCKY MOUNT CLOUDY 82 72 71 NE7 30.13S WASHINGTON MOSUNNY 82 72 72 E8 30.12S WHITEVILLE SUNNY 89 67 47 E3 30.07F $$ AMZ130-135-150-152-154-156-158-170-250-252-270-ANZ085-086-088-633-658-670-292000- MARINE OBSERVATIONS STATION/POSITION TIME TEMP WIND PRES WAVE SWELL AIR SEA DIR/SP/G HT/PER HT/PER (UTC) (F) (DEG/KT/KT) (MB) (FT/S) (FT/S) CHESAPEAKE LIGHT 1900 72 60/ 14/ 15 1021.7 BUOY 44014 1900 76 76 60/ 8/ 10 1020.7 4/ 8 3/ 8 DUCK 1900 76 78 60/ 14/ 15 1020.0 2E DUCK 1900 N/A 3/ 4 OREGON INLET 1900 77 79 50/ 12/ 17 1020.1 BUOY 44095 1900 77 N/A 4/ 9 2/11 20E OREGON INLET NOT AVBL HATTERAS CG 1900 80 81 50/ 7/ 10 1020.0 DIAMOND BUOY 1900 80 CALM / 2 1019.5 3/ 8 3/ 8 CAPE LOOKOUT 1900 83 200/ 8/ 10 1019.3 BEAUFORT LAB 1900 83 80 200/ 8/ 10 1018.8 30 SE NEW RIVER 1900 82 84 210/ 4/ 6 1019.9 3/ 9 3/ 9 5 SE WRIGHTSVILL 1900 79 82 150/ 10/ 10 N/A BUOY 41002 1841 81 84 110/ 6/ 8 1020.4 4/ 8 3/ 8 BUOY 41004 1900 83 87 40/ 4/ 4 1018.3 3/ 9 3/ 9 $$

USA.gov is the U.S. government's official web portal to all federal, state and local government web resources and services.